Sign-in with your pilot id or email, or register

ICAO: LRTM Name / Country: Marosvasarhely / Romania
Latitude: 46.4677 Longitude: 24.4125
Total Arrivals:
Deprecated: Non-static method AirportData::getarrflights() should not be called statically, assuming $this from incompatible context in /var/www/customers/vh-7192/web/home/phpvms/core/templates/airport_info.tpl on line 18
1
Total Departures:
Deprecated: Non-static method AirportData::getdeptflights() should not be called statically, assuming $this from incompatible context in /var/www/customers/vh-7192/web/home/phpvms/core/templates/airport_info.tpl on line 21
9
Latest Arrival: MTA424 (LHBP-LRTM) Tibor Berces Latest Departure: MTA11P (LRTM-LHBP) Tibor Berces
Metar: LRTM 061700Z 25003KT 3000 -RA BR SCT008 BKN035 05/04 Q1006
More info

Charts for LRTM


NOTAM


Warning: file_get_contents(http://api.vateud.net/notams/LRTM.json): failed to open stream: HTTP request failed! HTTP/1.1 404 Not Found in /var/www/customers/vh-7192/web/home/phpvms/core/common/NOTAMSData.class.php on line 18

Warning: Invalid argument supplied for foreach() in /var/www/customers/vh-7192/web/home/phpvms/core/common/NOTAMSData.class.php on line 22

Marosvasarhely